Time,TemperatureF,DewpointF,PressureIn,WindDirection,WindDirectionDegrees,WindSpeedMPH,WindSpeedGustMPH,Humidity,HourlyPrecipIn,Conditions,Clouds,dailyrainin,SoftwareType,DateUTC
2013-08-06 00:02:00,85.5,56.6,29.46,South,177,8.7,10.1,38,0.00,,---,0.00,VWS V14.01,2013-08-06 05:02:00,
2013-08-06 00:07:00,85.3,56.5,29.46,South,178,8.1,9.2,38,0.00,,---,0.00,VWS V14.01,2013-08-06 05:07:00,
2013-08-06 00:12:00,85.1,56.3,29.46,SSE,159,7.6,8.1,38,0.00,,---,0.00,VWS V14.01,2013-08-06 05:12:00,
2013-08-06 00:17:00,85.1,56.3,29.46,SSE,160,5.4,8.7,38,0.00,,---,0.00,VWS V14.01,2013-08-06 05:17:00,
2013-08-06 00:22:00,85.1,56.3,29.46,ESE,118,4.0,5.8,38,0.00,,---,0.00,VWS V14.01,2013-08-06 05:22:00,
2013-08-06 00:27:00,84.6,55.8,29.46,SE,124,5.8,5.8,38,0.00,,---,0.00,VWS V14.01,2013-08-06 05:27:00,
2013-08-06 00:32:00,84.2,55.5,29.46,East,96,3.6,4.0,38,0.00,,---,0.00,VWS V14.01,2013-08-06 05:32:00,
2013-08-06 00:37:00,83.7,56.1,29.46,ESE,103,3.1,4.0,39,0.00,,---,0.00,VWS V14.01,2013-08-06 05:37:00,
2013-08-06 00:41:00,83.1,56.7,29.46,East,88,4.0,4.5,40,0.00,,---,0.00,VWS V14.01,2013-08-06 05:41:00,
2013-08-06 00:46:00,82.8,57.3,29.46,ESE,112,5.4,5.4,42,0.00,,---,0.00,VWS V14.01,2013-08-06 05:46:00,
2013-08-06 00:51:00,82.4,58.0,29.46,ESE,112,2.7,4.0,44,0.00,,---,0.00,VWS V14.01,2013-08-06 05:51:00,
2013-08-06 00:56:00,81.9,57.5,29.46,ESE,113,3.1,3.6,44,0.00,,---,0.00,VWS V14.01,2013-08-06 05:56:00,
2013-08-06 01:01:00,81.3,58.0,29.46,ESE,119,4.0,4.0,45,0.00,,---,0.00,VWS V14.01,2013-08-06 06:01:00,
2013-08-06 01:06:00,81.0,57.6,29.46,ESE,118,5.4,5.8,45,0.00,,---,0.00,VWS V14.01,2013-08-06 06:06:00,
2013-08-06 01:11:00,80.8,57.5,29.46,ESE,117,3.6,3.6,45,0.00,,---,0.00,VWS V14.01,2013-08-06 06:11:00,
2013-08-06 01:16:00,80.4,58.1,29.46,SE,131,4.0,4.0,46,0.00,,---,0.00,VWS V14.01,2013-08-06 06:16:00,
2013-08-06 01:21:00,80.1,57.7,29.46,SE,127,3.6,3.6,46,0.00,,---,0.00,VWS V14.01,2013-08-06 06:21:00,
2013-08-06 01:26:00,79.9,58.5,29.46,SE,138,3.1,4.9,48,0.00,,---,0.00,VWS V14.01,2013-08-06 06:26:00,
2013-08-06 01:31:00,79.9,58.5,29.46,SSE,154,3.1,4.0,48,0.00,,---,0.00,VWS V14.01,2013-08-06 06:31:00,
2013-08-06 01:36:00,79.9,58.5,29.46,SSE,168,3.6,3.6,48,0.00,,---,0.00,VWS V14.01,2013-08-06 06:36:00,
2013-08-06 01:41:00,79.7,58.3,29.46,SSE,167,3.6,3.6,48,0.00,,---,0.00,VWS V14.01,2013-08-06 06:41:00,
2013-08-06 01:46:00,79.2,57.8,29.46,SSE,167,2.7,3.1,48,0.00,,---,0.00,VWS V14.01,2013-08-06 06:46:00,
2013-08-06 01:51:00,79.0,57.6,29.46,SSE,167,0.0,0.0,48,0.00,,---,0.00,VWS V14.01,2013-08-06 06:51:00,
2013-08-06 01:56:00,78.8,57.5,29.46,SSE,167,3.1,3.1,48,0.00,,---,0.00,VWS V14.01,2013-08-06 06:56:00,
2013-08-06 02:01:00,78.6,58.2,29.46,SSE,167,4.0,4.0,50,0.00,,---,0.00,VWS V14.01,2013-08-06 07:01:00,
2013-08-06 02:06:00,78.6,58.2,29.46,SSE,166,3.6,3.6,50,0.00,,---,0.00,VWS V14.01,2013-08-06 07:06:00,
2013-08-06 02:11:00,78.6,58.2,29.46,ESE,109,3.1,3.6,50,0.00,,---,0.00,VWS V14.01,2013-08-06 07:11:00,
2013-08-06 02:16:00,78.6,58.2,29.46,ESE,109,3.1,3.6,50,0.00,,---,0.00,VWS V14.01,2013-08-06 07:16:00,
2013-08-06 02:21:00,78.6,58.2,29.46,ESE,109,3.1,3.6,50,0.00,,---,0.00,VWS V14.01,2013-08-06 07:21:00,
2013-08-06 02:26:00,78.4,58.0,29.46,ESE,109,4.0,4.0,50,0.00,,---,0.00,VWS V14.01,2013-08-06 07:26:00,
2013-08-06 02:31:00,78.4,58.0,29.46,ESE,109,3.6,3.6,50,0.00,,---,0.00,VWS V14.01,2013-08-06 07:31:00,
2013-08-06 02:36:00,78.4,58.0,29.46,ESE,109,3.6,4.0,50,0.00,,---,0.00,VWS V14.01,2013-08-06 07:36:00,
2013-08-06 02:41:00,78.3,57.8,29.46,ESE,109,4.0,4.0,50,0.00,,---,0.00,VWS V14.01,2013-08-06 07:41:00,
2013-08-06 02:46:00,78.1,57.7,29.46,ESE,109,2.7,3.6,50,0.00,,---,0.00,VWS V14.01,2013-08-06 07:46:00,
2013-08-06 02:51:00,77.9,57.5,29.46,ESE,109,2.7,2.7,50,0.00,,---,0.00,VWS V14.01,2013-08-06 07:51:00,
2013-08-06 02:56:00,77.7,58.2,29.46,ESE,109,3.6,4.0,51,0.00,,---,0.00,VWS V14.01,2013-08-06 07:56:00,
2013-08-06 03:01:00,77.7,58.2,29.46,ESE,109,4.0,4.0,51,0.00,,---,0.00,VWS V14.01,2013-08-06 08:01:00,
2013-08-06 03:06:00,77.5,58.0,29.46,ESE,109,4.0,4.9,51,0.00,,---,0.00,VWS V14.01,2013-08-06 08:06:00,
2013-08-06 03:11:00,77.4,57.8,29.46,SE,126,3.1,5.4,51,0.00,,---,0.00,VWS V14.01,2013-08-06 08:11:00,
2013-08-06 03:16:00,77.4,57.8,29.46,SE,136,4.0,4.9,51,0.00,,---,0.00,VWS V14.01,2013-08-06 08:16:00,
2013-08-06 03:21:00,77.5,57.2,29.46,SSE,164,5.4,6.3,50,0.00,,---,0.00,VWS V14.01,2013-08-06 08:21:00,
2013-08-06 03:26:00,78.4,56.3,29.46,South,174,8.7,12.3,46,0.00,,---,0.00,VWS V14.01,2013-08-06 08:26:00,
2013-08-06 03:31:00,80.6,56.4,29.43,SSW,197,8.7,11.0,44,0.00,,---,0.00,VWS V14.01,2013-08-06 08:31:00,
2013-08-06 03:36:00,82.2,55.9,29.43,South,178,4.0,6.7,40,0.00,,---,0.00,VWS V14.01,2013-08-06 08:36:00,
2013-08-06 03:41:00,82.9,54.4,29.43,South,176,8.1,8.3,38,0.00,,---,0.00,VWS V14.01,2013-08-06 08:41:00,
2013-08-06 03:46:00,83.3,53.6,29.46,SW,232,4.0,4.0,36,0.00,,---,0.00,VWS V14.01,2013-08-06 08:46:00,
2013-08-06 03:51:00,83.5,53.8,29.46,South,184,7.6,7.6,36,0.00,,---,0.00,VWS V14.01,2013-08-06 08:51:00,
2013-08-06 03:56:00,83.5,53.8,29.46,South,176,2.7,4.0,36,0.00,,---,0.00,VWS V14.01,2013-08-06 08:56:00,
2013-08-06 04:01:00,83.3,53.6,29.46,South,174,2.7,3.6,36,0.00,,---,0.00,VWS V14.01,2013-08-06 09:01:00,
2013-08-06 04:06:00,82.9,53.3,29.46,SSE,158,3.1,4.0,36,0.00,,---,0.00,VWS V14.01,2013-08-06 09:06:00,
2013-08-06 04:11:00,82.6,53.0,29.46,SSE,158,0.0,0.0,36,0.00,,---,0.00,VWS V14.01,2013-08-06 09:11:00,
2013-08-06 04:16:00,82.4,52.8,29.46,SE,137,3.1,3.1,36,0.00,,---,0.00,VWS V14.01,2013-08-06 09:16:00,
2013-08-06 04:21:00,82.2,53.8,29.46,SE,134,0.0,0.0,38,0.00,,---,0.00,VWS V14.01,2013-08-06 09:21:00,
2013-08-06 04:26:00,82.2,53.8,29.46,SE,138,0.0,0.0,38,0.00,,---,0.00,VWS V14.01,2013-08-06 09:26:00,
2013-08-06 04:31:00,82.6,53.0,29.46,SSW,210,0.0,2.7,36,0.00,,---,0.00,VWS V14.01,2013-08-06 09:31:00,
2013-08-06 04:36:00,82.6,53.0,29.46,SSW,210,2.2,2.2,36,0.00,,---,0.00,VWS V14.01,2013-08-06 09:36:00,
2013-08-06 04:41:00,82.6,53.0,29.46,SSW,210,0.0,2.7,36,0.00,,---,0.00,VWS V14.01,2013-08-06 09:41:00,
2013-08-06 04:46:00,82.6,53.0,29.46,SW,226,0.0,2.2,36,0.00,,---,0.00,VWS V14.01,2013-08-06 09:46:00,
2013-08-06 04:51:00,82.4,52.8,29.46,SW,217,2.7,3.6,36,0.00,,---,0.00,VWS V14.01,2013-08-06 09:51:00,
2013-08-06 04:56:00,82.0,53.6,29.46,SW,223,4.0,5.4,38,0.00,,---,0.00,VWS V14.01,2013-08-06 09:56:00,
2013-08-06 05:01:00,81.9,53.4,29.46,SSW,192,6.3,6.3,38,0.00,,---,0.00,VWS V14.01,2013-08-06 10:01:00,
2013-08-06 05:06:00,81.7,53.3,29.46,SSW,195,4.0,4.0,38,0.00,,---,0.00,VWS V14.01,2013-08-06 10:06:00,
2013-08-06 05:11:00,81.5,53.1,29.46,SSW,203,5.8,5.8,38,0.00,,---,0.00,VWS V14.01,2013-08-06 10:11:00,
2013-08-06 05:16:00,81.5,53.1,29.46,SSW,197,3.6,5.8,38,0.00,,---,0.00,VWS V14.01,2013-08-06 10:16:00,
2013-08-06 05:21:00,81.5,53.1,29.46,South,190,3.6,3.6,38,0.00,,---,0.00,VWS V14.01,2013-08-06 10:21:00,
2013-08-06 05:26:00,81.7,53.3,29.46,South,177,2.7,2.7,38,0.00,,---,0.00,VWS V14.01,2013-08-06 10:26:00,
2013-08-06 05:31:00,81.7,53.3,29.46,SSE,160,4.9,5.4,38,0.00,,---,0.00,VWS V14.01,2013-08-06 10:31:00,
2013-08-06 05:36:00,81.7,53.3,29.46,SSE,167,3.1,4.9,38,0.00,,---,0.00,VWS V14.01,2013-08-06 10:36:00,
2013-08-06 05:41:00,81.7,53.3,29.46,South,171,5.8,5.8,38,0.00,,---,0.00,VWS V14.01,2013-08-06 10:41:00,
2013-08-06 05:46:00,81.7,53.3,29.43,SSE,167,5.4,5.4,38,0.00,,---,0.00,VWS V14.01,2013-08-06 10:46:00,
2013-08-06 05:51:00,81.7,53.3,29.43,SSW,192,4.0,4.0,38,0.00,,---,0.00,VWS V14.01,2013-08-06 10:51:00,
2013-08-06 05:56:00,81.5,53.1,29.43,SSW,207,4.9,4.9,38,0.00,,---,0.00,VWS V14.01,2013-08-06 10:56:00,
2013-08-06 06:01:00,81.3,53.0,29.46,South,176,3.6,4.9,38,0.00,,---,0.00,VWS V14.01,2013-08-06 11:01:00,
2013-08-06 06:06:00,81.0,52.6,29.46,South,180,4.9,5.8,38,0.00,,---,0.00,VWS V14.01,2013-08-06 11:06:00,
2013-08-06 06:11:00,81.0,52.6,29.46,SSW,204,5.8,5.8,38,0.00,,---,0.00,VWS V14.01,2013-08-06 11:11:00,
2013-08-06 06:16:00,81.0,52.6,29.46,SSW,201,4.9,6.3,38,0.00,,---,0.00,VWS V14.01,2013-08-06 11:16:00,
2013-08-06 06:21:00,81.0,52.6,29.46,SW,214,5.4,5.4,38,0.00,,---,0.00,VWS V14.01,2013-08-06 11:21:00,
2013-08-06 06:26:00,81.0,52.6,29.46,SW,218,3.6,3.6,38,0.00,,---,0.00,VWS V14.01,2013-08-06 11:26:00,
2013-08-06 06:31:00,81.0,52.6,29.46,SW,225,2.7,3.6,38,0.00,,---,0.00,VWS V14.01,2013-08-06 11:31:00,
2013-08-06 06:36:00,81.0,52.6,29.46,SW,224,3.6,5.4,38,0.00,,---,0.00,VWS V14.01,2013-08-06 11:36:00,
2013-08-06 06:41:00,81.0,52.6,29.46,SW,233,3.1,3.1,38,0.00,,---,0.00,VWS V14.01,2013-08-06 11:41:00,
2013-08-06 06:46:00,81.1,52.8,29.46,SW,227,3.6,4.0,38,0.00,,---,0.00,VWS V14.01,2013-08-06 11:46:00,
2013-08-06 06:51:00,81.3,53.0,29.46,WSW,245,3.1,3.1,38,0.00,,---,0.00,VWS V14.01,2013-08-06 11:51:00,
2013-08-06 06:56:00,81.3,53.0,29.46,SW,228,0.0,0.0,38,0.00,,---,0.00,VWS V14.01,2013-08-06 11:56:00,
2013-08-06 07:01:00,80.8,52.5,29.46,WSW,241,0.0,2.2,38,0.00,,---,0.00,VWS V14.01,2013-08-06 12:01:00,
2013-08-06 07:06:00,80.6,52.3,29.46,SW,232,2.2,3.1,38,0.00,,---,0.00,VWS V14.01,2013-08-06 12:06:00,
2013-08-06 07:11:00,80.2,53.1,29.46,SSW,196,2.7,3.1,39,0.00,,---,0.00,VWS V14.01,2013-08-06 12:11:00,
2013-08-06 07:16:00,80.2,54.1,29.46,SW,232,2.2,4.0,40,0.00,,---,0.00,VWS V14.01,2013-08-06 12:16:00,
2013-08-06 07:21:00,80.1,53.9,29.46,SW,235,2.7,3.6,40,0.00,,---,0.00,VWS V14.01,2013-08-06 12:21:00,
2013-08-06 07:26:00,79.9,53.8,29.46,SW,231,2.2,2.7,40,0.00,,---,0.00,VWS V14.01,2013-08-06 12:26:00,
2013-08-06 07:31:00,79.9,53.8,29.46,SSW,205,4.9,5.4,40,0.00,,---,0.00,VWS V14.01,2013-08-06 12:31:00,
2013-08-06 07:36:00,80.2,54.1,29.46,SW,222,3.1,5.8,40,0.00,,---,0.00,VWS V14.01,2013-08-06 12:36:00,
2013-08-06 07:41:00,80.4,54.2,29.46,SW,221,3.6,3.6,40,0.00,,---,0.00,VWS V14.01,2013-08-06 12:41:00,
2013-08-06 07:46:00,80.6,55.4,29.46,SW,221,0.0,0.0,42,0.00,,---,0.00,VWS V14.01,2013-08-06 12:46:00,
2013-08-06 07:51:00,81.0,54.7,29.46,SW,217,3.1,3.6,40,0.00,,---,0.00,VWS V14.01,2013-08-06 12:51:00,
2013-08-06 07:56:00,81.1,54.9,29.46,SW,217,0.0,0.0,40,0.00,,---,0.00,VWS V14.01,2013-08-06 12:56:00,
2013-08-06 08:01:00,81.5,55.2,29.46,SW,217,0.0,0.0,40,0.00,,---,0.00,VWS V14.01,2013-08-06 13:01:00,
2013-08-06 08:06:00,81.9,56.5,29.46,SW,217,4.0,4.0,42,0.00,,---,0.00,VWS V14.01,2013-08-06 13:06:00,
2013-08-06 08:11:00,82.4,56.0,29.46,SSW,212,3.6,4.5,40,0.00,,---,0.00,VWS V14.01,2013-08-06 13:11:00,
2013-08-06 08:16:00,82.8,55.3,29.46,SSW,202,5.4,5.4,39,0.00,,---,0.00,VWS V14.01,2013-08-06 13:16:00,
2013-08-06 08:21:00,83.5,55.9,29.46,SSW,208,3.6,5.4,39,0.00,,---,0.00,VWS V14.01,2013-08-06 13:21:00,
2013-08-06 08:26:00,84.2,53.2,29.46,SSW,213,5.4,7.2,34,0.00,,---,0.00,VWS V14.01,2013-08-06 13:26:00,
2013-08-06 08:31:00,84.7,53.7,29.46,SSW,212,8.7,8.7,34,0.00,,---,0.00,VWS V14.01,2013-08-06 13:31:00,
2013-08-06 08:36:00,85.3,54.2,29.46,SW,223,7.6,7.6,34,0.00,,---,0.00,VWS V14.01,2013-08-06 13:36:00,
2013-08-06 08:41:00,85.8,53.4,29.46,SSW,195,8.1,10.5,33,0.00,,---,0.00,VWS V14.01,2013-08-06 13:41:00,
2013-08-06 08:46:00,86.4,53.9,29.46,SW,214,10.1,11.0,33,0.00,,---,0.00,VWS V14.01,2013-08-06 13:46:00,
2013-08-06 08:51:00,86.5,54.0,29.46,SSW,205,3.1,3.6,33,0.00,,---,0.00,VWS V14.01,2013-08-06 13:51:00,
2013-08-06 08:56:00,87.1,54.5,29.46,SSW,207,11.0,12.3,33,0.00,,---,0.00,VWS V14.01,2013-08-06 13:56:00,
2013-08-06 09:01:00,87.4,53.6,29.46,WSW,254,15.0,15.0,32,0.00,,---,0.00,VWS V14.01,2013-08-06 14:01:00,
2013-08-06 09:06:00,87.8,53.9,29.46,SW,219,9.6,15.0,32,0.00,,---,0.00,VWS V14.01,2013-08-06 14:06:00,
2013-08-06 09:11:00,88.2,52.8,29.46,SSW,197,10.1,12.3,30,0.00,,---,0.00,VWS V14.01,2013-08-06 14:11:00,
2013-08-06 09:16:00,88.5,53.2,29.46,SW,218,8.7,8.7,30,0.00,,---,0.00,VWS V14.01,2013-08-06 14:16:00,
2013-08-06 09:21:00,88.9,53.5,29.46,West,268,9.6,12.8,30,0.00,,---,0.00,VWS V14.01,2013-08-06 14:21:00,
2013-08-06 09:26:00,89.2,53.8,29.46,SSW,211,11.0,11.0,30,0.00,,---,0.00,VWS V14.01,2013-08-06 14:26:00,
2013-08-06 09:31:00,89.8,52.8,29.46,SSW,202,11.9,12.3,28,0.00,,---,0.00,VWS V14.01,2013-08-06 14:31:00,
2013-08-06 09:36:00,90.1,51.7,29.46,SSW,198,10.1,10.1,27,0.00,,---,0.00,VWS V14.01,2013-08-06 14:36:00,
2013-08-06 09:41:00,90.7,53.6,29.46,SW,224,12.8,12.8,28,0.00,,---,0.00,VWS V14.01,2013-08-06 14:41:00,
2013-08-06 09:46:00,91.0,52.5,29.46,SW,233,11.0,11.0,27,0.00,,---,0.00,VWS V14.01,2013-08-06 14:46:00,
2013-08-06 09:51:00,91.0,52.5,29.46,SSW,196,11.0,12.8,27,0.00,,---,0.00,VWS V14.01,2013-08-06 14:51:00,
2013-08-06 09:56:00,91.2,52.6,29.46,WSW,237,11.0,11.0,27,0.00,,---,0.00,VWS V14.01,2013-08-06 14:56:00,
2013-08-06 10:01:00,91.6,52.9,29.46,WSW,239,10.1,15.0,27,0.00,,---,0.00,VWS V14.01,2013-08-06 15:01:00,
2013-08-06 10:06:00,91.9,53.2,29.46,West,261,11.0,12.8,27,0.00,,---,0.00,VWS V14.01,2013-08-06 15:06:00,
2013-08-06 10:11:00,91.8,51.5,29.46,SW,225,10.5,10.5,26,0.00,,---,0.00,VWS V14.01,2013-08-06 15:11:00,
2013-08-06 10:16:00,91.9,51.7,29.46,SW,223,11.0,11.0,26,0.00,,---,0.00,VWS V14.01,2013-08-06 15:16:00,
2013-08-06 10:21:00,91.9,51.7,29.46,SW,234,8.7,8.7,26,0.00,,---,0.00,VWS V14.01,2013-08-06 15:21:00,
2013-08-06 10:26:00,92.3,52.0,29.46,WSW,239,17.0,17.0,26,0.00,,---,0.00,VWS V14.01,2013-08-06 15:26:00,
2013-08-06 10:31:00,92.7,52.3,29.46,SW,231,8.7,10.5,26,0.00,,---,0.00,VWS V14.01,2013-08-06 15:31:00,
2013-08-06 10:36:00,92.8,52.4,29.46,WSW,247,11.0,15.4,26,0.00,,---,0.00,VWS V14.01,2013-08-06 15:36:00,
2013-08-06 10:41:00,93.0,52.6,29.46,West,261,5.4,17.0,26,0.00,,---,0.00,VWS V14.01,2013-08-06 15:41:00,
2013-08-06 10:46:00,93.4,52.9,29.46,SW,218,8.7,13.2,26,0.00,,---,0.00,VWS V14.01,2013-08-06 15:46:00,
2013-08-06 10:51:00,93.7,53.2,29.46,WSW,238,12.8,12.8,26,0.00,,---,0.00,VWS V14.01,2013-08-06 15:51:00,
2013-08-06 10:56:00,94.1,53.5,29.46,WSW,241,8.7,14.5,26,0.00,,---,0.00,VWS V14.01,2013-08-06 15:56:00,
2013-08-06 11:01:00,94.3,53.6,29.46,SW,223,12.8,12.8,26,0.00,,---,0.00,VWS V14.01,2013-08-06 16:01:00,
2013-08-06 11:06:00,94.6,53.9,29.46,WSW,252,6.3,8.3,26,0.00,,---,0.00,VWS V14.01,2013-08-06 16:06:00,
2013-08-06 11:11:00,94.8,54.1,29.46,SW,235,17.4,18.3,26,0.00,,---,0.00,VWS V14.01,2013-08-06 16:11:00,
2013-08-06 11:16:00,95.4,52.9,29.46,SW,221,11.0,11.0,24,0.00,,---,0.00,VWS V14.01,2013-08-06 16:16:00,
2013-08-06 11:21:00,95.5,53.0,29.46,WSW,245,8.7,15.4,24,0.00,,---,0.00,VWS V14.01,2013-08-06 16:21:00,
2013-08-06 11:26:00,95.9,53.3,29.46,SW,230,10.5,12.8,24,0.00,,---,0.00,VWS V14.01,2013-08-06 16:26:00,
2013-08-06 11:31:00,96.1,53.5,29.46,SSW,210,9.6,13.2,24,0.00,,---,0.00,VWS V14.01,2013-08-06 16:31:00,
2013-08-06 11:36:00,96.6,53.9,29.46,SW,222,8.1,13.6,24,0.00,,---,0.00,VWS V14.01,2013-08-06 16:36:00,
2013-08-06 11:41:00,96.6,53.9,29.46,SW,218,21.5,21.5,24,0.00,,---,0.00,VWS V14.01,2013-08-06 16:41:00,
2013-08-06 11:46:00,96.6,53.9,29.46,SSE,166,12.3,13.2,24,0.00,,---,0.00,VWS V14.01,2013-08-06 16:46:00,
2013-08-06 11:51:00,96.4,53.8,29.46,WNW,294,10.1,10.1,24,0.00,,---,0.00,VWS V14.01,2013-08-06 16:51:00,
2013-08-06 11:56:00,96.4,53.8,29.46,WSW,240,12.8,12.8,24,0.00,,---,0.00,VWS V14.01,2013-08-06 16:56:00,
2013-08-06 12:01:00,96.3,53.6,29.46,SW,215,14.1,14.1,24,0.00,,---,0.00,VWS V14.01,2013-08-06 17:01:00,
2013-08-06 12:06:00,96.4,53.8,29.46,South,184,11.0,11.0,24,0.00,,---,0.00,VWS V14.01,2013-08-06 17:06:00,
2013-08-06 12:11:00,96.6,53.9,29.46,SW,216,15.9,17.4,24,0.00,,---,0.00,VWS V14.01,2013-08-06 17:11:00,
2013-08-06 12:16:00,96.8,54.1,29.46,SSW,202,16.3,20.6,24,0.00,,---,0.00,VWS V14.01,2013-08-06 17:16:00,
2013-08-06 12:21:00,97.2,54.4,29.46,SSW,211,17.0,17.0,24,0.00,,---,0.00,VWS V14.01,2013-08-06 17:21:00,
2013-08-06 12:26:00,97.3,54.5,29.46,SSW,208,14.5,14.5,24,0.00,,---,0.00,VWS V14.01,2013-08-06 17:26:00,
2013-08-06 12:27:00,97.3,54.5,29.46,WSW,240,11.9,11.9,24,0.00,,---,0.00,VWS V14.01,2013-08-06 17:27:00,
2013-08-06 12:32:00,97.5,54.7,29.46,SW,229,10.5,10.5,24,0.00,,---,0.00,VWS V14.01,2013-08-06 17:32:00,
2013-08-06 12:37:00,97.9,55.0,29.46,SW,224,15.4,17.0,24,0.00,,---,0.00,VWS V14.01,2013-08-06 17:37:00,
2013-08-06 12:42:00,97.9,55.0,29.46,SW,226,13.2,13.2,24,0.00,,---,0.00,VWS V14.01,2013-08-06 17:42:00,
2013-08-06 12:47:00,98.4,55.5,29.46,SW,217,15.4,15.4,24,0.00,,---,0.00,VWS V14.01,2013-08-06 17:47:00,
2013-08-06 12:52:00,98.6,53.8,29.46,SW,231,15.0,16.8,22,0.00,,---,0.00,VWS V14.01,2013-08-06 17:52:00,
2013-08-06 12:57:00,99.0,54.1,29.46,SSW,212,11.0,13.2,22,0.00,,---,0.00,VWS V14.01,2013-08-06 17:57:00,
2013-08-06 13:02:00,99.1,54.3,29.46,West,266,8.3,8.7,22,0.00,,---,0.00,VWS V14.01,2013-08-06 18:02:00,
2013-08-06 13:07:00,99.7,54.7,29.46,South,191,10.5,10.5,22,0.00,,---,0.00,VWS V14.01,2013-08-06 18:07:00,
2013-08-06 13:12:00,100.2,55.2,29.46,SSW,213,12.8,14.1,22,0.00,,---,0.00,VWS V14.01,2013-08-06 18:12:00,
2013-08-06 13:17:00,99.9,54.9,29.43,SW,223,8.3,8.3,22,0.00,,---,0.00,VWS V14.01,2013-08-06 18:17:00,
2013-08-06 13:22:00,100.2,51.3,29.43,SW,224,14.5,15.4,20,0.00,,---,0.00,VWS V14.01,2013-08-06 18:22:00,
2013-08-06 13:27:00,100.6,55.5,29.43,South,182,17.0,17.0,22,0.00,,---,0.00,VWS V14.01,2013-08-06 18:27:00,
2013-08-06 13:32:00,100.9,55.8,29.43,South,180,6.3,17.4,22,0.00,,---,0.00,VWS V14.01,2013-08-06 18:32:00,
2013-08-06 13:37:00,101.3,56.1,29.43,SSE,163,14.5,16.8,22,0.00,,---,0.00,VWS V14.01,2013-08-06 18:37:00,
2013-08-06 13:42:00,101.5,50.1,29.43,South,179,11.0,15.4,18,0.00,,---,0.00,VWS V14.01,2013-08-06 18:42:00,
2013-08-06 13:47:00,101.8,50.4,29.43,SSW,194,15.0,19.7,18,0.00,,---,0.00,VWS V14.01,2013-08-06 18:47:00,
2013-08-06 13:52:00,101.7,50.3,29.43,SSW,196,15.9,17.0,18,0.00,,---,0.00,VWS V14.01,2013-08-06 18:52:00,
2013-08-06 13:57:00,101.7,50.3,29.43,SW,225,8.3,11.0,18,0.00,,---,0.00,VWS V14.01,2013-08-06 18:57:00,
2013-08-06 14:02:00,102.0,50.6,29.43,South,190,10.1,10.1,18,0.00,,---,0.00,VWS V14.01,2013-08-06 19:02:00,
2013-08-06 14:07:00,102.0,50.6,29.43,SSW,200,17.4,17.4,18,0.00,,---,0.00,VWS V14.01,2013-08-06 19:07:00,
2013-08-06 14:12:00,102.2,50.7,29.43,SSW,204,13.6,13.6,18,0.00,,---,0.00,VWS V14.01,2013-08-06 19:12:00,
2013-08-06 14:17:00,102.2,50.7,29.43,SSW,207,11.0,17.0,18,0.00,,---,0.00,VWS V14.01,2013-08-06 19:17:00,
2013-08-06 14:22:00,102.9,51.3,29.43,South,190,8.3,12.8,18,0.00,,---,0.00,VWS V14.01,2013-08-06 19:22:00,
2013-08-06 14:27:00,103.3,51.6,29.43,South,170,16.3,16.3,18,0.00,,---,0.00,VWS V14.01,2013-08-06 19:27:00,
2013-08-06 14:32:00,103.3,51.6,29.43,South,179,12.3,15.0,18,0.00,,---,0.00,VWS V14.01,2013-08-06 19:32:00,
2013-08-06 14:37:00,103.3,43.9,29.43,SSW,209,6.3,8.7,14,0.00,,---,0.00,VWS V14.01,2013-08-06 19:37:00,
2013-08-06 14:42:00,103.3,43.9,29.43,SSW,206,13.2,16.8,14,0.00,,---,0.00,VWS V14.01,2013-08-06 19:42:00,
2013-08-06 14:47:00,103.3,43.9,29.40,South,174,12.8,12.8,14,0.00,,---,0.00,VWS V14.01,2013-08-06 19:47:00,
2013-08-06 14:52:00,103.6,44.2,29.40,South,177,12.8,15.4,14,0.00,,---,0.00,VWS V14.01,2013-08-06 19:52:00,
2013-08-06 14:57:00,103.8,44.3,29.40,SSW,192,8.7,15.0,14,0.00,,---,0.00,VWS V14.01,2013-08-06 19:57:00,
2013-08-06 15:02:00,104.0,44.5,29.40,South,174,12.3,15.0,14,0.00,,---,0.00,VWS V14.01,2013-08-06 20:02:00,
2013-08-06 15:07:00,103.8,44.3,29.40,SSW,208,10.1,13.2,14,0.00,,---,0.00,VWS V14.01,2013-08-06 20:07:00,
2013-08-06 15:12:00,104.0,44.5,29.40,South,178,14.5,18.8,14,0.00,,---,0.00,VWS V14.01,2013-08-06 20:12:00,
2013-08-06 15:17:00,104.0,44.5,29.40,South,183,15.4,17.4,14,0.00,,---,0.00,VWS V14.01,2013-08-06 20:17:00,
2013-08-06 15:21:00,104.2,44.6,29.40,SE,140,11.0,11.9,14,0.00,,---,0.00,VWS V14.01,2013-08-06 20:21:00,
2013-08-06 15:26:00,104.5,44.9,29.40,SSW,206,15.4,17.4,14,0.00,,---,0.00,VWS V14.01,2013-08-06 20:26:00,
2013-08-06 15:31:00,104.4,44.8,29.40,WSW,248,5.8,10.1,14,0.00,,---,0.00,VWS V14.01,2013-08-06 20:31:00,
2013-08-06 15:32:00,104.4,44.8,29.40,WSW,248,5.8,10.1,14,0.00,,---,0.00,VWS V14.01,2013-08-06 20:32:00,
2013-08-06 15:37:00,104.2,44.6,29.40,South,174,12.3,16.8,14,0.00,,---,0.00,VWS V14.01,2013-08-06 20:37:00,
2013-08-06 15:42:00,104.2,44.6,29.40,South,176,8.3,12.3,14,0.00,,---,0.00,VWS V14.01,2013-08-06 20:42:00,
2013-08-06 15:47:00,104.0,44.5,29.40,South,171,10.5,12.3,14,0.00,,---,0.00,VWS V14.01,2013-08-06 20:47:00,
2013-08-06 15:52:00,104.2,44.6,29.40,SSE,167,11.0,18.8,14,0.00,,---,0.00,VWS V14.01,2013-08-06 20:52:00,
2013-08-06 15:57:00,104.4,44.8,29.40,SSW,198,13.2,13.2,14,0.00,,---,0.00,VWS V14.01,2013-08-06 20:57:00,
2013-08-06 16:01:00,104.2,44.6,29.37,South,181,13.2,15.4,14,0.00,,---,0.00,VWS V14.01,2013-08-06 21:01:00,
2013-08-06 16:06:00,104.5,44.9,29.37,South,184,11.0,13.2,14,0.00,,---,0.00,VWS V14.01,2013-08-06 21:06:00,
2013-08-06 16:11:00,104.4,44.8,29.37,SSE,162,13.2,17.4,14,0.00,,---,0.00,VWS V14.01,2013-08-06 21:11:00,
2013-08-06 16:16:00,104.2,44.6,29.37,SSW,209,17.4,17.4,14,0.00,,---,0.00,VWS V14.01,2013-08-06 21:16:00,
2013-08-06 16:21:00,104.0,44.5,29.37,South,184,15.4,18.8,14,0.00,,---,0.00,VWS V14.01,2013-08-06 21:21:00,
2013-08-06 16:26:00,104.2,44.6,29.37,South,186,13.2,15.4,14,0.00,,---,0.00,VWS V14.01,2013-08-06 21:26:00,
2013-08-06 16:31:00,104.0,44.5,29.37,SSE,163,12.3,12.3,14,0.00,,---,0.00,VWS V14.01,2013-08-06 21:31:00,
2013-08-06 16:36:00,104.5,44.9,29.37,South,178,15.0,15.0,14,0.00,,---,0.00,VWS V14.01,2013-08-06 21:36:00,
2013-08-06 16:41:00,104.7,45.0,29.37,South,171,10.5,11.9,14,0.00,,---,0.00,VWS V14.01,2013-08-06 21:41:00,
2013-08-06 16:46:00,104.5,44.9,29.37,South,182,12.8,15.0,14,0.00,,---,0.00,VWS V14.01,2013-08-06 21:46:00,
2013-08-06 16:51:00,104.2,44.6,29.37,South,177,14.5,15.4,14,0.00,,---,0.00,VWS V14.01,2013-08-06 21:51:00,
2013-08-06 16:56:00,104.2,44.6,29.37,SSE,165,8.7,15.0,14,0.00,,---,0.00,VWS V14.01,2013-08-06 21:56:00,
2013-08-06 16:57:00,104.2,44.6,29.37,South,171,11.0,12.8,14,0.00,,---,0.00,VWS V14.01,2013-08-06 21:57:00,
2013-08-06 17:02:00,104.0,44.5,29.37,SSW,194,15.9,18.8,14,0.00,,---,0.00,VWS V14.01,2013-08-06 22:02:00,
2013-08-06 17:07:00,104.2,44.6,29.37,SSE,167,10.1,13.2,14,0.00,,---,0.00,VWS V14.01,2013-08-06 22:07:00,
2013-08-06 17:12:00,104.5,44.9,29.37,South,171,11.0,12.8,14,0.00,,---,0.00,VWS V14.01,2013-08-06 22:12:00,
2013-08-06 17:17:00,104.5,44.9,29.37,SSW,205,10.5,15.4,14,0.00,,---,0.00,VWS V14.01,2013-08-06 22:17:00,
2013-08-06 17:22:00,104.4,44.8,29.37,SSE,165,15.4,17.4,14,0.00,,---,0.00,VWS V14.01,2013-08-06 22:22:00,
2013-08-06 17:27:00,104.0,44.5,29.37,SSW,192,17.9,21.0,14,0.00,,---,0.00,VWS V14.01,2013-08-06 22:27:00,
2013-08-06 17:32:00,104.0,44.5,29.37,South,187,12.8,15.0,14,0.00,,---,0.00,VWS V14.01,2013-08-06 22:32:00,
2013-08-06 17:37:00,104.0,44.5,29.37,SSE,155,13.6,15.9,14,0.00,,---,0.00,VWS V14.01,2013-08-06 22:37:00,
2013-08-06 17:42:00,103.8,44.3,29.37,SSE,159,13.2,13.2,14,0.00,,---,0.00,VWS V14.01,2013-08-06 22:42:00,
2013-08-06 17:47:00,103.8,44.3,29.37,South,187,13.2,14.1,14,0.00,,---,0.00,VWS V14.01,2013-08-06 22:47:00,
2013-08-06 17:52:00,103.6,44.2,29.37,South,174,10.5,12.8,14,0.00,,---,0.00,VWS V14.01,2013-08-06 22:52:00,
2013-08-06 17:57:00,103.6,44.2,29.37,SE,139,11.9,11.9,14,0.00,,---,0.00,VWS V14.01,2013-08-06 22:57:00,
2013-08-06 18:02:00,103.8,44.3,29.37,South,171,14.1,14.1,14,0.00,,---,0.00,VWS V14.01,2013-08-06 23:02:00,
2013-08-06 18:07:00,103.8,44.3,29.37,South,175,10.1,11.0,14,0.00,,---,0.00,VWS V14.01,2013-08-06 23:07:00,
2013-08-06 18:12:00,103.6,44.2,29.37,SSE,156,12.3,12.8,14,0.00,,---,0.00,VWS V14.01,2013-08-06 23:12:00,
2013-08-06 18:17:00,103.3,43.9,29.34,SSE,168,13.2,15.4,14,0.00,,---,0.00,VWS V14.01,2013-08-06 23:17:00,
2013-08-06 18:22:00,103.5,44.1,29.34,SE,143,10.5,12.8,14,0.00,,---,0.00,VWS V14.01,2013-08-06 23:22:00,
2013-08-06 18:27:00,103.3,43.9,29.34,SSE,165,6.3,8.7,14,0.00,,---,0.00,VWS V14.01,2013-08-06 23:27:00,
2013-08-06 18:32:00,103.3,43.9,29.34,SSE,150,12.3,13.2,14,0.00,,---,0.00,VWS V14.01,2013-08-06 23:32:00,
2013-08-06 18:37:00,102.9,43.6,29.34,SSE,167,12.8,12.8,14,0.00,,---,0.00,VWS V14.01,2013-08-06 23:37:00,
2013-08-06 18:42:00,102.4,43.2,29.34,SE,131,11.0,13.2,14,0.00,,---,0.00,VWS V14.01,2013-08-06 23:42:00,
2013-08-06 18:47:00,102.0,45.7,29.34,South,170,12.8,13.6,15,0.00,,---,0.00,VWS V14.01,2013-08-06 23:47:00,
2013-08-06 18:52:00,101.8,45.6,29.34,SE,131,8.3,11.0,15,0.00,,---,0.00,VWS V14.01,2013-08-06 23:52:00,
2013-08-06 18:57:00,101.5,45.3,29.34,SE,134,12.3,12.3,15,0.00,,---,0.00,VWS V14.01,2013-08-06 23:57:00,
2013-08-06 19:02:00,101.1,45.0,29.34,SE,141,6.3,10.1,15,0.00,,---,0.00,VWS V14.01,2013-08-07 00:02:00,
2013-08-06 19:07:00,101.1,45.0,29.34,SE,145,8.3,10.1,15,0.00,,---,0.00,VWS V14.01,2013-08-07 00:07:00,
2013-08-06 19:12:00,100.8,44.7,29.34,SE,141,11.9,11.9,15,0.00,,---,0.00,VWS V14.01,2013-08-07 00:12:00,
2013-08-06 19:17:00,100.4,44.4,29.34,SSE,147,8.1,8.7,15,0.00,,---,0.00,VWS V14.01,2013-08-07 00:17:00,
2013-08-06 19:22:00,99.9,44.0,29.34,SE,140,7.6,7.6,15,0.00,,---,0.00,VWS V14.01,2013-08-07 00:22:00,
2013-08-06 19:27:00,99.3,43.6,29.34,SE,140,8.7,11.9,15,0.00,,---,0.00,VWS V14.01,2013-08-07 00:27:00,
2013-08-06 19:32:00,98.6,43.0,29.34,SE,143,7.6,11.0,15,0.00,,---,0.00,VWS V14.01,2013-08-07 00:32:00,
2013-08-06 19:37:00,98.2,45.2,29.34,SE,137,7.2,10.1,16,0.00,,---,0.00,VWS V14.01,2013-08-07 00:37:00,
2013-08-06 19:42:00,97.9,44.9,29.34,SE,146,8.1,8.1,16,0.00,,---,0.00,VWS V14.01,2013-08-07 00:42:00,
2013-08-06 19:47:00,97.3,44.5,29.34,SE,131,8.7,10.1,16,0.00,,---,0.00,VWS V14.01,2013-08-07 00:47:00,
2013-08-06 19:52:00,96.8,44.1,29.34,SE,139,8.7,8.7,16,0.00,,---,0.00,VWS V14.01,2013-08-07 00:52:00,
2013-08-06 19:57:00,96.4,43.8,29.34,SE,134,8.1,8.1,16,0.00,,---,0.00,VWS V14.01,2013-08-07 00:57:00,
2013-08-06 20:02:00,95.7,43.2,29.34,SE,141,8.1,8.1,16,0.00,,---,0.00,VWS V14.01,2013-08-07 01:02:00,
2013-08-06 20:07:00,94.8,48.8,29.34,SSE,151,6.3,7.6,21,0.00,,---,0.00,VWS V14.01,2013-08-07 01:07:00,
2013-08-06 20:12:00,94.1,48.2,29.34,SE,131,8.1,8.1,21,0.00,,---,0.00,VWS V14.01,2013-08-07 01:12:00,
2013-08-06 20:17:00,93.4,47.7,29.34,SE,129,6.7,6.7,21,0.00,,---,0.00,VWS V14.01,2013-08-07 01:17:00,
2013-08-06 20:22:00,92.8,47.2,29.34,ESE,122,5.4,5.4,21,0.00,,---,0.00,VWS V14.01,2013-08-07 01:22:00,
2013-08-06 20:27:00,92.7,47.1,29.34,SE,131,8.3,8.3,21,0.00,,---,0.00,VWS V14.01,2013-08-07 01:27:00,
2013-08-06 20:32:00,92.3,46.8,29.34,East,98,5.8,6.3,21,0.00,,---,0.00,VWS V14.01,2013-08-07 01:32:00,
2013-08-06 20:37:00,91.9,51.7,29.34,ESE,115,7.2,8.7,26,0.00,,---,0.00,VWS V14.01,2013-08-07 01:37:00,
2013-08-06 20:42:00,91.4,51.2,29.34,ESE,113,8.1,8.7,26,0.00,,---,0.00,VWS V14.01,2013-08-07 01:42:00,
2013-08-06 20:47:00,91.2,51.0,29.37,SSE,151,6.3,6.3,26,0.00,,---,0.00,VWS V14.01,2013-08-07 01:47:00,
2013-08-06 20:52:00,90.9,52.3,29.37,SE,124,6.3,8.1,27,0.00,,---,0.00,VWS V14.01,2013-08-07 01:52:00,
2013-08-06 20:57:00,90.7,52.1,29.37,SE,143,11.0,11.0,27,0.00,,---,0.00,VWS V14.01,2013-08-07 01:57:00,
2013-08-06 21:02:00,90.3,51.8,29.37,SE,136,8.1,8.1,27,0.00,,---,0.00,VWS V14.01,2013-08-07 02:02:00,
2013-08-06 21:07:00,90.0,51.5,29.37,SE,142,5.8,10.1,27,0.00,,---,0.00,VWS V14.01,2013-08-07 02:07:00,
2013-08-06 21:12:00,89.6,51.2,29.37,SE,139,8.3,8.3,27,0.00,,---,0.00,VWS V14.01,2013-08-07 02:12:00,
2013-08-06 21:17:00,89.2,52.4,29.37,SE,131,8.1,8.7,28,0.00,,---,0.00,VWS V14.01,2013-08-07 02:17:00,
2013-08-06 21:22:00,89.1,52.2,29.37,SE,126,8.7,8.7,28,0.00,,---,0.00,VWS V14.01,2013-08-07 02:22:00,
2013-08-06 21:27:00,88.9,52.1,29.37,SE,125,11.0,11.0,28,0.00,,---,0.00,VWS V14.01,2013-08-07 02:27:00,
2013-08-06 21:32:00,88.9,52.1,29.37,SE,127,8.1,11.0,28,0.00,,---,0.00,VWS V14.01,2013-08-07 02:32:00,
2013-08-06 21:37:00,89.1,52.2,29.37,ESE,120,10.5,10.5,28,0.00,,---,0.00,VWS V14.01,2013-08-07 02:37:00,
2013-08-06 21:42:00,89.1,52.2,29.37,SE,140,8.3,10.5,28,0.00,,---,0.00,VWS V14.01,2013-08-07 02:42:00,
2013-08-06 21:47:00,89.1,52.2,29.37,SE,134,8.1,13.2,28,0.00,,---,0.00,VWS V14.01,2013-08-07 02:47:00,
2013-08-06 21:52:00,89.2,52.4,29.37,SE,133,12.3,12.3,28,0.00,,---,0.00,VWS V14.01,2013-08-07 02:52:00,
2013-08-06 21:57:00,89.2,52.4,29.37,SE,140,10.5,13.2,28,0.00,,---,0.00,VWS V14.01,2013-08-07 02:57:00,
2013-08-06 22:02:00,89.2,52.4,29.37,SSE,156,8.1,11.0,28,0.00,,---,0.00,VWS V14.01,2013-08-07 03:02:00,
2013-08-06 22:07:00,89.1,52.2,29.37,SE,140,8.3,11.0,28,0.00,,---,0.00,VWS V14.01,2013-08-07 03:07:00,
2013-08-06 22:12:00,89.1,52.2,29.37,SE,134,8.3,12.8,28,0.00,,---,0.00,VWS V14.01,2013-08-07 03:12:00,
2013-08-06 22:17:00,88.9,52.1,29.40,SE,137,7.2,10.1,28,0.00,,---,0.00,VWS V14.01,2013-08-07 03:17:00,
2013-08-06 22:22:00,88.7,51.9,29.40,SE,140,10.1,11.9,28,0.00,,---,0.00,VWS V14.01,2013-08-07 03:22:00,
2013-08-06 22:27:00,88.3,51.6,29.40,SE,145,8.3,8.7,28,0.00,,---,0.00,VWS V14.01,2013-08-07 03:27:00,
2013-08-06 22:32:00,88.2,51.5,29.40,SSE,155,8.7,8.7,28,0.00,,---,0.00,VWS V14.01,2013-08-07 03:32:00,
2013-08-06 22:37:00,87.6,52.4,29.40,SE,139,7.6,8.1,30,0.00,,---,0.00,VWS V14.01,2013-08-07 03:37:00,
2013-08-06 22:42:00,87.3,52.1,29.40,SSE,153,5.4,8.1,30,0.00,,---,0.00,VWS V14.01,2013-08-07 03:42:00,
2013-08-06 22:47:00,87.1,51.9,29.40,SE,128,5.8,5.8,30,0.00,,---,0.00,VWS V14.01,2013-08-07 03:47:00,
2013-08-06 22:52:00,86.7,52.9,29.40,SE,133,8.1,8.7,32,0.00,,---,0.00,VWS V14.01,2013-08-07 03:52:00,
2013-08-06 22:57:00,86.4,52.6,29.40,SE,138,6.3,6.3,32,0.00,,---,0.00,VWS V14.01,2013-08-07 03:57:00,
2013-08-06 23:01:00,86.2,52.5,29.40,SE,144,5.4,6.3,32,0.00,,---,0.00,VWS V14.01,2013-08-07 04:01:00,
2013-08-06 23:06:00,85.8,53.4,29.40,SE,142,5.4,5.8,33,0.00,,---,0.00,VWS V14.01,2013-08-07 04:06:00,
2013-08-06 23:11:00,85.8,53.4,29.40,SE,144,5.8,6.3,33,0.00,,---,0.00,VWS V14.01,2013-08-07 04:11:00,
2013-08-06 23:16:00,85.6,54.5,29.40,SE,142,5.8,5.8,34,0.00,,---,0.00,VWS V14.01,2013-08-07 04:16:00,
2013-08-06 23:21:00,85.5,54.3,29.40,SE,146,4.0,7.6,34,0.00,,---,0.00,VWS V14.01,2013-08-07 04:21:00,
2013-08-06 23:26:00,85.3,54.2,29.40,SSE,158,5.8,6.3,34,0.00,,---,0.00,VWS V14.01,2013-08-07 04:26:00,
2013-08-06 23:31:00,85.3,54.2,29.40,SE,137,4.9,6.7,34,0.00,,---,0.00,VWS V14.01,2013-08-07 04:31:00,
2013-08-06 23:36:00,85.3,54.2,29.40,SSE,165,5.4,7.6,34,0.00,,---,0.00,VWS V14.01,2013-08-07 04:36:00,
2013-08-06 23:41:00,85.5,54.3,29.40,SSE,160,8.1,8.1,34,0.00,,---,0.00,VWS V14.01,2013-08-07 04:41:00,
2013-08-06 23:46:00,85.8,53.4,29.43,SE,144,5.8,5.8,33,0.00,,---,0.00,VWS V14.01,2013-08-07 04:46:00,
2013-08-06 23:51:00,85.8,53.4,29.43,SSE,161,5.4,8.1,33,0.00,,---,0.00,VWS V14.01,2013-08-07 04:51:00,
2013-08-06 23:56:00,86.0,52.3,29.43,SSE,150,11.0,11.0,32,0.00,,---,0.00,VWS V14.01,2013-08-07 04:56:00,